Hourly Data Report for May 14, 2012

All times are specified in Local Standard Time (LST). Add 1 hour to adjust for Daylight Saving Time where and when it is observed.

DEER LAKE A
NEWFOUNDLAND

49°12'33.000" N
57°23'40.000" W
21.90 m
8401502
71809
YDF

Download Data

Hourly Data (May 2012)
Hourly Data Report for May 14, 2012
Temp Definition
°C
Dew Point Temp Definition
°C
Rel Hum Definition
%
Wind Dir Definition
10's deg

Wind Spd Definition
km/h
Visibility Definition
km
Stn Press Definition
kPa
Hmdx Definition


Wind Chill Definition


Weather Definition


TIME
00:30 Legend Double Dagger 4.6 2.6 87 24 10 10.0 102.11     LegendNANA
01:30 Legend Double Dagger 4.6 2.8 88 23 11 10.0 102.13     LegendNANA
02:30 Legend Double Dagger 4.8 3.2 89 25 9 10.0 102.14     Cloudy
03:30 Legend Double Dagger 4.9 3.1 88 25 10 10.0 102.20     LegendNANA
04:30 Legend Double Dagger 5.1 2.6 84 23 14 10.0 102.24     LegendNANA
05:30 Legend Double Dagger 5.2 2.7 84 23 10 10.0 102.31     Mostly Cloudy
06:30 Legend Double Dagger 5.6 2.8 82 25 10 10.0 102.36     LegendNANA
07:30 Legend Double Dagger 6.6 3.2 79 23 11 10.0 102.39     LegendNANA
08:30 Legend Double Dagger 8.3 3.8 73 21 13 10.0 102.39     Mainly Clear
09:30 Legend Double Dagger 9.6 4.0 68 16 9 10.0 102.38     LegendNANA
10:30 Legend Double Dagger 12.2 4.7 60 22 12 10.0 102.34     LegendNANA
11:30 Legend Double Dagger 14.2 4.8 53 22 20 10.0 102.29     Mainly Clear
12:30 Legend Double Dagger 15.6 4.7 48 22 14 10.0 102.26     LegendNANA
13:30 Legend Double Dagger 17.0 5.1 45 20 11 10.0 102.21     LegendNANA
14:30 Legend Double Dagger 18.2 4.1 39 24 22 10.0 102.17     Mainly Clear
15:30 Legend Double Dagger 18.7 4.6 39 24 15 10.0 102.17     LegendNANA
16:30 Legend Double Dagger 18.5 4.4 39 28 14 10.0 102.15     LegendNANA
17:30 Legend Double Dagger 18.1 5.1 42 30 14 10.0 102.15     Mainly Clear
18:30 Legend Double Dagger 16.7 4.8 45 28 9 10.0 102.18     LegendNANA
19:30 Legend Double Dagger 14.9 4.9 51 27 4 10.0 102.19     LegendNANA
20:30 Legend Double Dagger 11.3 6.7 73 24 5 10.0 102.23     Mainly Clear
21:30 Legend Double Dagger 9.1 5.7 79 21 8 10.0 102.29     LegendNANA
22:30 Legend Double Dagger 9.0 5.0 76 23 7 10.0 102.30     LegendNANA
23:30 Legend Double Dagger 7.2 4.9 85 23 6 10.0 102.33     Mainly Clear

Notes on Data Quality.

Legend

  • E = Estimated
  • M = Missing
  • NA = Not Available
  • ‡ = Partner data that is not subject to review by the National Climate Archives
Date modified: